START_TIME,STEP,MOV.,M29,t_acc.,H22,t_acc.,H26,t_acc.,H30,t_acc.
1979-07-14 06:00:32.190 ,1,1,0.,24.0,0.,24.0,0.,24.0,0.,24.0
1979-07-14 06:00:56.190 ,2,1,0.,24.0,0.,24.0,0.,24.0,0.,24.0
1979-07-14 06:01:20.190 ,6,1,0.,24.0,0.,24.0,0.,24.0,0.,24.0
1979-07-14 06:01:44.190 ,5,1,0.,24.0,0.,24.0,0.,24.0,0.,24.0
1979-07-14 06:02:08.190 ,1,1,0.,24.0,0.,24.0,0.,24.0,0.,24.0
1979-07-14 06:02:32.190 ,2,1,0.,24.0,0.,24.0,0.,24.0,0.,24.0
1979-07-14 06:02:56.190 ,6,1,0.,24.0,0.,24.0,0.,24.0,0.,24.0
1979-07-14 06:03:20.190 ,5,1,0.,24.0,0.,24.0,0.,24.0,0.,24.0
1979-07-14 06:03:44.190 ,1,1,0.,24.0,0.,24.0,0.,24.0,0.,24.0
1979-07-14 06:04:08.190 ,2,1,0.,24.0,0.,24.0,0.,24.0,0.,24.0
1979-07-14 06:04:32.190 ,6,1,0.,24.0,0.,24.0,0.,24.0,0.,24.0
1979-07-14 06:04:56.190 ,5,1,0.,24.0,0.,24.0,0.,24.0,0.,24.0
1979-07-14 06:05:20.190 ,1,1,0.,24.0,0.,24.0,0.,24.0,0.,24.0
1979-07-14 06:05:44.190 ,0,0,0.,24.0,0.,24.0,0.,24.0,0.,24.0
1979-07-14 06:06:08.190 ,0,0,0.,24.0,0.,24.0,0.,24.0,0.,24.0
1979-07-14 06:06:32.190 ,5,1,0.,24.0,0.,24.0,0.,24.0,0.,24.0
1979-07-14 06:06:56.190 ,5,0,0.,24.0,0.,24.0,0.,24.0,0.,24.0
1979-07-14 06:07:20.190 ,4,1,0.,24.0,0.,24.0,0.,24.0,0.,24.0
1979-07-14 06:07:44.190 ,4,0,0.,24.0,0.,24.0,0.,24.0,0.,24.0
1979-07-14 06:08:08.190 ,3,1,0.,24.0,0.,24.0,0.,24.0,0.,24.0
1979-07-14 06:08:32.190 ,3,0,0.,24.0,0.,24.0,0.,24.0,0.,24.0
1979-07-14 06:08:56.190 ,2,1,0.,24.0,0.,24.0,0.,24.0,0.,24.0
1979-07-14 06:09:20.190 ,2,0,0.,24.0,0.,24.0,0.,24.0,0.,24.0
1979-07-14 06:09:44.190 ,1,1,0.,24.0,0.,24.0,0.,24.0,0.,24.0
1979-07-14 06:10:08.190 ,1,0,0.,24.0,0.,24.0,0.,24.0,0.,24.0
1979-07-14 06:10:32.190 ,0,1,0.,24.0,0.,24.0,0.,24.0,0.,24.0
1979-07-14 06:10:56.190 ,0,0,0.,24.0,0.,24.0,0.,24.0,0.,24.0
1979-07-14 06:11:20.190 ,0,1,0.,24.0,0.,24.0,0.,24.0,0.,24.0
1979-07-14 06:11:44.190 ,0,0,0.,24.0,0.,24.0,0.,24.0,0.,24.0
1979-07-14 06:12:08.190 ,1,1,0.,24.0,0.,24.0,0.,24.0,0.,24.0
1979-07-14 06:12:32.190 ,1,0,0.,24.0,0.,24.0,0.,24.0,0.,24.0
1979-07-14 06:12:56.190 ,2,1,0.,24.0,0.,24.0,0.,24.0,0.,24.0
1979-07-14 06:13:20.190 ,2,0,0.,24.0,0.,24.0,0.,24.0,0.,24.0
1979-07-14 06:13:44.190 ,3,1,0.,24.0,0.,24.0,0.,24.0,0.,24.0
1979-07-14 06:14:08.190 ,3,0,0.,24.0,0.,24.0,0.,24.0,0.,24.0
1979-07-14 06:14:32.190 ,4,1,0.,24.0,0.,24.0,0.,24.0,0.,24.0
1979-07-14 06:14:56.190 ,4,0,0.,24.0,0.,24.0,0.,24.0,0.,24.0
1979-07-14 06:15:20.190 ,5,1,0.,24.0,0.,24.0,0.,24.0,0.,24.0
1979-07-14 06:15:44.190 ,5,0,0.,24.0,0.,24.0,0.,24.0,0.,24.0
1979-07-14 06:16:08.190 ,6,1,0.,24.0,0.,24.0,0.,24.0,0.,24.0
1979-07-14 06:16:32.190 ,6,0,0.,24.0,0.,24.0,0.,24.0,0.,24.0
1979-07-14 06:16:56.190 ,7,1,0.,24.0,0.,24.0,0.,24.0,0.,24.0
1979-07-14 06:17:20.190 ,7,0,0.,24.0,0.,24.0,0.,24.0,0.,24.0
1979-07-14 06:17:44.190 ,7,1,0.,24.0,0.,24.0,0.,24.0,0.,24.0
1979-07-14 06:18:08.190 ,7,0,0.,24.0,0.,24.0,0.,24.0,0.,24.0
1979-07-14 06:18:32.190 ,6,1,0.,24.0,0.,24.0,0.,24.0,0.,24.0
1979-07-14 06:18:56.190 ,6,0,0.,24.0,0.,24.0,0.,24.0,0.,24.0
1979-07-14 06:19:20.190 ,5,1,0.,24.0,0.,24.0,0.,24.0,0.,24.0
1979-07-14 06:19:44.190 ,5,0,0.,24.0,0.,24.0,0.,24.0,0.,24.0
1979-07-14 06:20:08.190 ,4,1,0.,24.0,0.,24.0,0.,24.0,0.,24.0
1979-07-14 06:20:32.190 ,4,0,0.,24.0,0.,24.0,0.,24.0,0.,24.0
1979-07-14 06:20:56.190 ,3,1,0.,24.0,0.,24.0,0.,24.0,0.,24.0
1979-07-14 06:21:20.190 ,3,0,0.,24.0,0.,24.0,0.,24.0,0.,24.0
1979-07-14 06:21:44.190 ,2,1,0.,24.0,0.,24.0,0.,24.0,0.,24.0
1979-07-14 06:22:08.190 ,2,0,0.,24.0,0.,24.0,0.,24.0,0.,24.0
1979-07-14 06:22:32.190 ,1,1,0.,24.0,0.,24.0,0.,24.0,0.,24.0
1979-07-14 06:22:56.190 ,1,0,0.,24.0,0.,24.0,0.,24.0,0.,24.0
1979-07-14 06:23:20.190 ,0,1,0.,24.0,0.,24.0,0.,24.0,0.,24.0
1979-07-14 06:23:44.190 ,0,0,0.,24.0,0.,24.0,0.,24.0,0.,24.0
1979-07-14 06:24:08.190 ,0,1,0.,24.0,0.,24.0,0.,24.0,0.,24.0
1979-07-14 06:24:32.190 ,0,0,0.,24.0,0.,24.0,0.,24.0,0.,24.0
1979-07-14 06:24:56.190 ,1,1,0.,24.0,0.,24.0,0.,24.0,0.,24.0
1979-07-14 06:25:20.190 ,1,0,0.,24.0,0.,24.0,0.,24.0,0.,24.0
1979-07-14 06:25:44.190 ,2,1,0.,24.0,0.,24.0,0.,24.0,0.,24.0
1979-07-14 06:26:08.190 ,2,0,0.,24.0,0.,24.0,0.,24.0,0.,24.0
1979-07-14 06:26:32.190 ,3,1,0.,24.0,0.,24.0,0.,24.0,0.,24.0
1979-07-14 06:26:56.190 ,3,0,0.,24.0,0.,24.0,0.,24.0,0.,24.0
1979-07-14 06:27:20.190 ,4,1,0.,24.0,0.,24.0,0.,24.0,0.,24.0
1979-07-14 06:27:44.190 ,4,0,0.,24.0,0.,24.0,0.,24.0,0.,24.0
1979-07-14 06:28:08.190 ,5,1,0.,24.0,0.,24.0,0.,24.0,0.,24.0
1979-07-14 06:28:32.190 ,5,0,0.,24.0,0.,24.0,0.,24.0,0.,24.0
1979-07-14 06:28:56.190 ,6,1,0.,24.0,0.,24.0,0.,24.0,0.,24.0
1979-07-14 06:29:20.190 ,6,0,0.,24.0,0.,24.0,0.,24.0,0.,24.0
1979-07-14 06:29:44.190 ,7,1,0.,24.0,0.,24.0,0.,24.0,0.,24.0
1979-07-14 06:30:08.190 ,7,0,0.,24.0,0.,24.0,0.,24.0,0.,24.0
1979-07-14 06:30:32.190 ,7,1,0.,24.0,0.,24.0,0.,24.0,0.,24.0
1979-07-14 06:30:56.190 ,7,0,0.,24.0,0.,24.0,0.,24.0,0.,24.0
1979-07-14 06:31:20.190 ,6,1,0.,24.0,0.,24.0,0.,24.0,0.,24.0
1979-07-14 06:31:44.190 ,6,0,0.,24.0,0.,24.0,0.,24.0,0.,24.0
1979-07-14 06:32:08.190 ,5,1,0.,24.0,0.,24.0,0.,24.0,0.,24.0
1979-07-14 06:32:32.190 ,5,0,0.,24.0,0.,24.0,0.,24.0,0.,24.0
1979-07-14 06:32:56.190 ,4,1,0.,24.0,0.,24.0,0.,24.0,0.,24.0
1979-07-14 06:33:20.190 ,4,0,0.,24.0,0.,24.0,0.,24.0,0.,24.0
1979-07-14 06:33:44.190 ,3,1,0.,24.0,0.,24.0,0.,24.0,0.,24.0
1979-07-14 06:34:08.190 ,3,0,0.,24.0,0.,24.0,0.,24.0,0.,24.0
1979-07-14 06:34:32.190 ,2,1,0.,24.0,0.,24.0,0.,24.0,0.,24.0
1979-07-14 06:34:56.190 ,2,0,0.,24.0,0.,24.0,0.,24.0,0.,24.0
1979-07-14 06:35:20.190 ,1,1,0.,24.0,0.,24.0,0.,24.0,0.,24.0
1979-07-14 06:35:44.190 ,1,0,0.,24.0,0.,24.0,0.,24.0,0.,24.0
1979-07-14 06:36:08.190 ,0,1,0.,24.0,0.,24.0,0.,24.0,0.,24.0
1979-07-14 06:36:32.190 ,0,0,0.,24.0,0.,24.0,0.,24.0,0.,24.0
1979-07-14 06:36:56.190 ,0,1,0.,24.0,0.,24.0,0.,24.0,0.,24.0
1979-07-14 06:37:20.190 ,0,0,0.,24.0,0.,24.0,0.,24.0,0.,24.0
1979-07-14 06:37:44.190 ,1,1,0.,24.0,0.,24.0,0.,24.0,0.,24.0
1979-07-14 06:38:08.190 ,1,0,0.,24.0,0.,24.0,0.,24.0,0.,24.0
1979-07-14 06:38:32.190 ,2,1,0.,24.0,0.,24.0,0.,24.0,0.,24.0
1979-07-14 06:38:56.190 ,2,0,0.,24.0,0.,24.0,0.,24.0,0.,24.0
1979-07-14 06:39:20.190 ,3,1,0.,24.0,0.,24.0,0.,24.0,0.,24.0
1979-07-14 06:39:44.190 ,3,0,0.,24.0,0.,24.0,0.,24.0,0.,24.0
1979-07-14 06:40:08.190 ,4,1,0.,24.0,0.,24.0,0.,24.0,0.,24.0
1979-07-14 06:40:32.190 ,4,0,0.,24.0,0.,24.0,0.,24.0,0.,24.0
1979-07-14 06:40:56.190 ,5,1,0.,24.0,0.,24.0,0.,24.0,0.,24.0
1979-07-14 06:41:20.190 ,5,0,0.,24.0,0.,24.0,0.,24.0,0.,24.0
1979-07-14 06:41:44.190 ,6,1,0.,24.0,0.,24.0,0.,24.0,0.,24.0
1979-07-14 06:42:08.190 ,6,0,0.,24.0,0.,24.0,0.,24.0,0.,24.0
1979-07-14 06:42:32.190 ,7,0,0.,24.0,0.,24.0,0.,24.0,0.,24.0
1979-07-14 06:42:56.190 ,7,0,0.,24.0,0.,24.0,0.,24.0,0.,24.0
1979-07-14 06:43:20.190 ,5,1,0.,24.0,0.,24.0,0.,24.0,0.,24.0
1979-07-14 06:43:44.190 ,1,1,0.,24.0,0.,24.0,0.,24.0,0.,24.0
1979-07-14 06:44:08.190 ,2,1,0.,24.0,0.,24.0,0.,24.0,0.,24.0
1979-07-14 06:44:32.190 ,6,1,0.,24.0,0.,24.0,0.,24.0,0.,24.0
1979-07-14 06:44:56.190 ,5,1,0.,24.0,0.,24.0,0.,24.0,0.,24.0
1979-07-14 06:45:20.190 ,1,1,0.,24.0,0.,24.0,0.,24.0,0.,24.0
1979-07-14 06:45:44.190 ,2,1,0.,24.0,0.,24.0,0.,24.0,0.,24.0
1979-07-14 06:46:08.190 ,6,1,0.,24.0,0.,24.0,0.,24.0,0.,24.0
1979-07-14 06:46:32.190 ,5,1,0.,24.0,0.,24.0,0.,24.0,0.,24.0
1979-07-14 06:46:56.190 ,1,1,0.,24.0,0.,24.0,0.,24.0,0.,24.0
1979-07-14 06:47:20.190 ,2,1,0.,24.0,0.,24.0,0.,24.0,0.,24.0
1979-07-14 06:47:44.190 ,6,1,0.,24.0,0.,24.0,0.,24.0,0.,24.0
1979-07-14 06:48:08.190 ,5,1,0.,24.0,0.,24.0,0.,24.0,0.,24.0
1979-07-14 06:48:32.190 ,1,1,0.,24.0,0.,24.0,0.,24.0,0.,24.0
1979-07-14 06:48:56.190 ,2,1,0.,24.0,0.,24.0,0.,24.0,0.,24.0
1979-07-14 06:49:20.190 ,6,1,0.,24.0,0.,24.0,0.,24.0,0.,24.0
1979-07-14 06:49:44.190 ,5,1,0.,24.0,0.,24.0,0.,24.0,0.,24.0
1979-07-14 06:50:08.190 ,1,1,0.,24.0,0.,24.0,0.,24.0,0.,24.0
1979-07-14 06:50:32.190 ,2,1,0.,24.0,0.,24.0,0.,24.0,0.,24.0
1979-07-14 06:50:56.190 ,6,1,0.,24.0,0.,24.0,0.,24.0,0.,24.0
1979-07-14 06:51:20.190 ,5,1,0.,24.0,0.,24.0,0.,24.0,0.,24.0
1979-07-14 06:51:44.190 ,1,1,0.,24.0,0.,24.0,0.,24.0,0.,24.0
1979-07-14 06:52:08.190 ,2,1,0.,24.0,0.,24.0,0.,24.0,0.,24.0
1979-07-14 06:52:32.190 ,6,1,0.,24.0,0.,24.0,0.,24.0,0.,24.0
1979-07-14 06:52:56.190 ,5,1,0.,24.0,0.,24.0,0.,24.0,0.,24.0
1979-07-14 06:53:20.190 ,1,1,0.,24.0,0.,24.0,0.,24.0,0.,24.0
1979-07-14 06:53:44.190 ,0,0,0.,24.0,0.,24.0,0.,24.0,0.,24.0
1979-07-14 06:54:08.190 ,0,0,0.,24.0,0.,24.0,0.,24.0,0.,24.0
1979-07-14 06:54:32.190 ,5,1,0.,24.0,0.,24.0,0.,24.0,0.,24.0
1979-07-14 06:54:56.190 ,0,0,,0,,0,,0,,0
1979-07-14 06:55:15.390 ,7,0,,0,,0,,0,,0
1979-07-14 06:55:20.190 ,4,1,0.,24.0,0.,24.0,0.,24.0,0.,24.0
1979-07-14 06:55:44.190 ,4,0,0.,24.0,0.,24.0,0.,24.0,0.,24.0
1979-07-14 06:56:08.190 ,3,1,0.,24.0,0.,24.0,0.,24.0,0.,24.0
1979-07-14 06:56:32.190 ,3,0,0.,24.0,0.,24.0,0.,24.0,0.,24.0
1979-07-14 06:56:56.190 ,2,1,0.,24.0,0.,24.0,0.,24.0,0.,24.0
1979-07-14 06:57:20.190 ,2,0,0.,24.0,0.,24.0,0.,24.0,0.,24.0
1979-07-14 06:57:44.190 ,1,1,0.,24.0,0.,24.0,0.,24.0,0.,24.0
1979-07-14 06:58:08.190 ,1,0,0.,24.0,0.,24.0,0.,24.0,0.,24.0
1979-07-14 06:58:32.190 ,0,1,0.,24.0,0.,24.0,0.,24.0,0.,24.0
1979-07-14 06:58:56.190 ,0,0,0.,24.0,0.,24.0,0.,24.0,0.,24.0
1979-07-14 06:59:20.190 ,0,1,0.,24.0,0.,24.0,0.,24.0,0.,24.0
1979-07-14 06:59:44.190 ,0,0,0.,24.0,0.,24.0,0.,24.0,0.,24.0
1979-07-14 07:00:08.190 ,1,1,0.,24.0,0.,24.0,0.,24.0,0.,24.0
1979-07-14 07:00:32.190 ,1,0,0.,24.0,0.,24.0,0.,24.0,0.,24.0
1979-07-14 07:00:56.190 ,2,1,0.,24.0,0.,24.0,0.,24.0,0.,24.0
1979-07-14 07:01:20.190 ,2,0,0.,24.0,0.,24.0,0.,24.0,0.,24.0
1979-07-14 07:01:44.190 ,3,1,0.,24.0,0.,24.0,0.,24.0,0.,24.0
1979-07-14 07:02:08.190 ,3,0,0.,24.0,0.,24.0,0.,24.0,0.,24.0
1979-07-14 07:02:32.190 ,4,1,0.,24.0,0.,24.0,0.,24.0,0.,24.0
1979-07-14 07:02:56.190 ,4,0,0.,24.0,0.,24.0,0.,24.0,0.,24.0
1979-07-14 07:03:20.190 ,5,1,0.,24.0,0.,24.0,0.,24.0,0.,24.0
1979-07-14 07:03:44.190 ,5,0,0.,24.0,0.,24.0,0.,24.0,0.,24.0
1979-07-14 07:04:09.390 ,6,1,0.,24.0,0.,24.0,0.,24.0,0.,24.0
1979-07-14 07:04:32.190 ,6,0,0.,24.0,0.,24.0,0.,24.0,0.,24.0
1979-07-14 07:04:56.190 ,7,1,0.,24.0,0.,24.0,0.,24.0,0.,24.0
1979-07-14 07:05:20.190 ,7,0,0.,24.0,0.,24.0,0.,24.0,0.,24.0
1979-07-14 07:05:44.190 ,7,1,0.,24.0,0.,24.0,0.,24.0,0.,24.0
1979-07-14 07:06:08.190 ,7,0,0.,24.0,0.,24.0,0.,24.0,0.,24.0
1979-07-14 07:06:32.190 ,6,1,0.,24.0,0.,24.0,0.,24.0,0.,24.0
1979-07-14 07:06:56.190 ,6,0,0.,24.0,0.,24.0,0.,24.0,0.,24.0
1979-07-14 07:07:20.190 ,5,1,0.,24.0,0.,24.0,0.,24.0,0.,24.0
1979-07-14 07:07:44.190 ,5,0,0.,24.0,0.,24.0,0.,24.0,0.,24.0
1979-07-14 07:08:08.190 ,4,1,0.,24.0,0.,24.0,0.,24.0,0.,24.0
1979-07-14 07:08:32.190 ,4,0,0.,24.0,0.,24.0,0.,24.0,0.,24.0
1979-07-14 07:08:56.190 ,3,1,0.,24.0,0.,24.0,0.,24.0,0.,24.0
1979-07-14 07:09:20.190 ,3,0,0.,24.0,0.,24.0,0.,24.0,0.,24.0
1979-07-14 07:09:44.190 ,2,1,0.,24.0,0.,24.0,0.,24.0,0.,24.0
1979-07-14 07:10:08.190 ,2,0,0.,24.0,0.,24.0,0.,24.0,0.,24.0
1979-07-14 07:10:32.190 ,1,1,0.,24.0,0.,24.0,0.,24.0,0.,24.0
1979-07-14 07:10:56.190 ,1,0,0.,24.0,0.,24.0,0.,24.0,0.,24.0
1979-07-14 07:11:20.190 ,0,1,0.,24.0,0.,24.0,0.,24.0,0.,24.0
1979-07-14 07:11:44.190 ,0,0,0.,24.0,0.,24.0,0.,24.0,0.,24.0
1979-07-14 07:12:08.190 ,0,1,0.,24.0,0.,24.0,0.,24.0,0.,24.0
1979-07-14 07:12:32.190 ,0,0,0.,24.0,0.,24.0,0.,24.0,0.,24.0
1979-07-14 07:12:56.190 ,1,1,0.,24.0,0.,24.0,0.,24.0,0.,24.0
1979-07-14 07:13:20.190 ,1,0,0.,24.0,0.,24.0,0.,24.0,0.,24.0
1979-07-14 07:13:44.190 ,2,1,0.,24.0,0.,24.0,0.,24.0,0.,24.0
1979-07-14 07:14:08.190 ,2,0,0.,24.0,0.,24.0,0.,24.0,0.,24.0
1979-07-14 07:14:32.190 ,3,1,0.,24.0,0.,24.0,0.,24.0,0.,24.0
1979-07-14 07:14:56.190 ,3,0,0.,24.0,0.,24.0,0.,24.0,0.,24.0
1979-07-14 07:15:20.190 ,4,1,0.,24.0,0.,24.0,0.,24.0,0.,24.0
1979-07-14 07:15:44.190 ,4,0,0.,24.0,0.,24.0,0.,24.0,0.,24.0
1979-07-14 07:16:08.190 ,5,1,0.,24.0,0.,24.0,0.,24.0,0.,24.0
1979-07-14 07:16:32.190 ,5,0,0.,24.0,0.,24.0,0.,24.0,0.,24.0
1979-07-14 07:16:56.190 ,6,1,0.,24.0,0.,24.0,0.,24.0,0.,24.0
1979-07-14 07:17:20.190 ,6,0,0.,24.0,0.,24.0,0.,24.0,0.,24.0
1979-07-14 07:17:44.190 ,7,1,0.,24.0,0.,24.0,0.,24.0,0.,24.0
1979-07-14 07:18:08.190 ,7,0,0.,24.0,0.,24.0,0.,24.0,0.,24.0
1979-07-14 07:18:32.190 ,7,1,0.,24.0,0.,24.0,0.,24.0,0.,24.0
1979-07-14 07:18:56.190 ,7,0,0.,24.0,0.,24.0,0.,24.0,0.,24.0
1979-07-14 07:19:20.190 ,6,1,0.,24.0,0.,24.0,0.,24.0,0.,24.0
1979-07-14 07:19:44.190 ,6,0,0.,24.0,0.,24.0,0.,24.0,0.,24.0
1979-07-14 07:20:08.190 ,5,1,0.,24.0,0.,24.0,0.,24.0,0.,24.0
1979-07-14 07:20:32.190 ,5,0,0.,24.0,0.,24.0,0.,24.0,0.,24.0
1979-07-14 07:20:56.190 ,4,1,0.,24.0,0.,24.0,0.,24.0,0.,24.0
1979-07-14 07:21:20.190 ,4,0,0.,24.0,0.,24.0,0.,24.0,0.,24.0
1979-07-14 07:21:44.190 ,3,1,0.,24.0,0.,24.0,0.,24.0,0.,24.0
1979-07-14 07:22:08.190 ,3,0,0.,24.0,0.,24.0,0.,24.0,0.,24.0
1979-07-14 07:22:32.190 ,2,1,0.,24.0,0.,24.0,0.,24.0,0.,24.0
1979-07-14 07:22:56.190 ,2,0,0.,24.0,0.,24.0,0.,24.0,0.,24.0
1979-07-14 07:23:20.190 ,1,1,0.,24.0,0.,24.0,0.,24.0,0.,24.0
1979-07-14 07:23:44.190 ,1,0,0.,24.0,0.,24.0,0.,24.0,0.,24.0
1979-07-14 07:24:08.190 ,0,1,0.,24.0,0.,24.0,0.,24.0,0.,24.0
1979-07-14 07:24:32.190 ,0,0,0.,24.0,0.,24.0,0.,24.0,0.,24.0
1979-07-14 07:24:56.190 ,0,1,0.,24.0,0.,24.0,0.,24.0,0.,24.0
1979-07-14 07:25:20.190 ,0,0,0.,24.0,0.,24.0,0.,24.0,0.,24.0
1979-07-14 07:25:44.190 ,1,1,0.,24.0,0.,24.0,0.,24.0,0.,24.0
1979-07-14 07:26:08.190 ,1,0,0.,24.0,0.,24.0,0.,24.0,0.,24.0
1979-07-14 07:26:32.190 ,2,1,0.,24.0,0.,24.0,0.,24.0,0.,24.0
1979-07-14 07:26:56.190 ,2,0,0.,24.0,0.,24.0,0.,24.0,0.,24.0
1979-07-14 07:27:20.190 ,3,1,0.,24.0,0.,24.0,0.,24.0,0.,24.0
1979-07-14 07:27:44.190 ,3,0,0.,24.0,0.,24.0,0.,24.0,0.,24.0
1979-07-14 07:28:08.190 ,4,1,0.,24.0,0.,24.0,0.,24.0,0.,24.0
1979-07-14 07:28:32.190 ,4,0,0.,24.0,0.,24.0,0.,24.0,0.,24.0
1979-07-14 07:28:56.190 ,5,1,0.,24.0,0.,24.0,0.,24.0,0.,24.0
1979-07-14 07:29:20.190 ,5,0,0.,24.0,0.,24.0,0.,24.0,0.,24.0
1979-07-14 07:29:44.190 ,6,1,0.,24.0,0.,24.0,0.,24.0,0.,24.0
1979-07-14 07:30:08.190 ,6,0,0.,24.0,0.,24.0,0.,24.0,0.,24.0
1979-07-14 07:30:32.190 ,7,0,0.,24.0,0.,24.0,0.,24.0,0.,24.0
1979-07-14 07:30:56.190 ,7,0,0.,24.0,0.,24.0,0.,24.0,0.,24.0
1979-07-14 07:31:20.190 ,5,1,0.,24.0,0.,24.0,0.,24.0,0.,24.0
1979-07-14 07:31:44.190 ,1,1,0.,24.0,0.,24.0,0.,24.0,0.,24.0
1979-07-14 07:32:08.190 ,0,0,0.,24.0,0.,24.0,0.,24.0,0.,24.0
1979-07-14 07:32:32.190 ,0,0,0.,24.0,0.,24.0,0.,24.0,0.,24.0
1979-07-14 07:32:56.190 ,5,1,0.,24.0,0.,24.0,0.,24.0,0.,24.0
1979-07-14 07:33:20.190 ,1,1,0.,24.0,0.,24.0,0.,24.0,0.,24.0
1979-07-14 07:33:44.190 ,2,1,0.,24.0,0.,24.0,0.,24.0,0.,24.0
1979-07-14 07:34:08.190 ,6,1,0.,24.0,0.,24.0,0.,24.0,0.,24.0
1979-07-14 07:34:32.190 ,5,1,0.,24.0,0.,24.0,0.,24.0,0.,24.0
1979-07-14 07:34:56.190 ,1,1,0.,24.0,0.,24.0,0.,24.0,0.,24.0
1979-07-14 07:35:20.190 ,2,1,0.,24.0,0.,24.0,0.,24.0,0.,24.0
1979-07-14 07:35:44.190 ,6,1,0.,24.0,0.,24.0,0.,24.0,0.,24.0
1979-07-14 07:36:08.190 ,5,1,0.,24.0,0.,24.0,0.,24.0,0.,24.0
1979-07-14 07:36:32.190 ,1,1,0.,24.0,0.,24.0,0.,24.0,0.,24.0
1979-07-14 07:36:56.190 ,2,1,0.,24.0,0.,24.0,0.,24.0,0.,24.0
1979-07-14 07:37:20.190 ,6,1,0.,24.0,0.,24.0,0.,24.0,0.,24.0
1979-07-14 07:37:44.190 ,5,1,0.,24.0,0.,24.0,0.,24.0,0.,24.0
1979-07-14 07:38:08.190 ,1,1,0.,24.0,0.,24.0,0.,24.0,0.,24.0
1979-07-14 07:38:32.190 ,2,1,0.,24.0,0.,24.0,0.,24.0,0.,24.0
1979-07-14 07:38:56.190 ,6,1,0.,24.0,0.,24.0,0.,24.0,0.,24.0
1979-07-14 07:39:20.190 ,5,1,0.,24.0,0.,24.0,0.,24.0,0.,24.0
1979-07-14 07:39:44.190 ,1,1,0.,24.0,0.,24.0,0.,24.0,0.,24.0
1979-07-14 07:40:08.190 ,2,1,0.,24.0,0.,24.0,0.,24.0,0.,24.0
1979-07-14 07:40:32.190 ,6,1,0.,24.0,0.,24.0,0.,24.0,0.,24.0
1979-07-14 07:40:56.190 ,5,1,0.,24.0,0.,24.0,0.,24.0,0.,24.0
1979-07-14 07:41:20.190 ,1,1,0.,24.0,0.,24.0,0.,24.0,0.,24.0
1979-07-14 07:41:44.190 ,0,0,0.,24.0,0.,24.0,0.,24.0,0.,24.0
1979-07-14 07:42:08.190 ,0,0,0.,24.0,0.,24.0,0.,24.0,0.,24.0
1979-07-14 07:42:32.190 ,5,1,0.,24.0,0.,24.0,0.,24.0,0.,24.0
1979-07-14 07:42:56.190 ,5,0,0.,24.0,0.,24.0,0.,24.0,0.,24.0
1979-07-14 07:43:20.190 ,4,1,0.,24.0,0.,24.0,0.,24.0,0.,24.0
1979-07-14 07:43:44.190 ,4,0,0.,24.0,0.,24.0,0.,24.0,0.,24.0
1979-07-14 07:44:32.190 ,3,0,0.,24.0,0.,24.0,0.,24.0,0.,24.0
1979-07-14 07:44:56.190 ,2,1,0.,24.0,0.,24.0,0.,24.0,0.,24.0
1979-07-14 07:45:20.190 ,2,0,0.,24.0,0.,24.0,0.,24.0,0.,24.0
1979-07-14 07:45:44.190 ,1,1,0.,24.0,0.,24.0,0.,24.0,0.,24.0
1979-07-14 07:46:08.190 ,1,0,0.,24.0,0.,24.0,0.,24.0,0.,24.0
1979-07-14 07:46:32.190 ,0,1,0.,24.0,0.,24.0,0.,24.0,0.,24.0
1979-07-14 07:46:56.190 ,0,0,0.,24.0,0.,24.0,0.,24.0,0.,24.0
1979-07-14 07:47:20.190 ,0,1,0.,24.0,0.,24.0,0.,24.0,0.,24.0
1979-07-14 07:47:44.190 ,0,0,0.,24.0,0.,24.0,0.,24.0,0.,24.0
1979-07-14 07:48:08.190 ,1,1,0.,24.0,0.,24.0,0.,24.0,0.,24.0
1979-07-14 07:48:32.190 ,1,0,0.,24.0,0.,24.0,0.,24.0,0.,24.0
1979-07-14 07:48:56.190 ,2,1,0.,24.0,0.,24.0,0.,24.0,0.,24.0
1979-07-14 07:49:20.190 ,2,0,0.,24.0,0.,24.0,0.,24.0,0.,24.0
1979-07-14 07:49:44.190 ,3,1,0.,24.0,0.,24.0,0.,24.0,0.,24.0
1979-07-14 07:50:08.190 ,3,0,0.,24.0,0.,24.0,0.,24.0,0.,24.0
1979-07-14 07:50:32.190 ,4,1,0.,24.0,0.,24.0,0.,24.0,0.,24.0
1979-07-14 07:50:56.190 ,4,0,0.,24.0,0.,24.0,0.,24.0,0.,24.0
1979-07-14 07:51:20.190 ,5,1,0.,24.0,0.,24.0,0.,24.0,0.,24.0
1979-07-14 07:51:44.190 ,5,0,0.,24.0,0.,24.0,0.,24.0,0.,24.0
1979-07-14 07:52:08.190 ,6,1,0.,24.0,0.,24.0,0.,24.0,0.,24.0
1979-07-14 07:52:32.190 ,6,0,0.,24.0,0.,24.0,0.,24.0,0.,24.0
1979-07-14 07:52:56.190 ,7,1,0.,24.0,0.,24.0,0.,24.0,0.,24.0
1979-07-14 07:53:20.190 ,7,0,0.,24.0,0.,24.0,0.,24.0,0.,24.0
1979-07-14 07:53:44.190 ,7,1,0.,24.0,0.,24.0,0.,24.0,0.,24.0
1979-07-14 07:54:08.190 ,7,0,0.,24.0,0.,24.0,0.,24.0,0.,24.0
1979-07-14 07:54:32.190 ,6,1,0.,24.0,0.,24.0,0.,24.0,0.,24.0
1979-07-14 07:54:56.190 ,6,0,0.,24.0,0.,24.0,0.,24.0,0.,24.0
1979-07-14 07:55:20.190 ,5,1,0.,24.0,0.,24.0,0.,24.0,0.,24.0
1979-07-14 07:55:44.190 ,5,0,0.,24.0,0.,24.0,0.,24.0,0.,24.0
1979-07-14 07:56:08.190 ,4,1,0.,24.0,0.,24.0,0.,24.0,0.,24.0
1979-07-14 07:56:32.190 ,4,0,0.,24.0,0.,24.0,0.,24.0,0.,24.0
1979-07-14 07:56:56.190 ,3,1,0.,24.0,0.,24.0,0.,24.0,0.,24.0
1979-07-14 07:57:20.190 ,3,0,0.,24.0,0.,24.0,0.,24.0,0.,24.0
1979-07-14 07:57:44.190 ,2,1,0.,24.0,0.,24.0,0.,24.0,0.,24.0
1979-07-14 07:58:08.190 ,2,0,0.,24.0,0.,24.0,0.,24.0,0.,24.0
1979-07-14 07:58:32.180 ,1,1,0.,24.0,0.,24.0,0.,24.0,0.,24.0
1979-07-14 07:58:56.180 ,1,0,0.,24.0,0.,24.0,0.,24.0,0.,24.0
1979-07-14 07:59:20.180 ,0,1,0.,24.0,0.,24.0,0.,24.0,0.,24.0
1979-07-14 07:59:44.180 ,0,0,0.,24.0,0.,24.0,0.,24.0,0.,24.0
1979-07-14 08:00:08.180 ,0,1,0.,24.0,0.,24.0,0.,24.0,0.,24.0
1979-07-14 08:00:32.190 ,0,0,0.,24.0,0.,24.0,0.,24.0,0.,24.0
1979-07-14 08:00:56.190 ,1,1,0.,24.0,0.,24.0,0.,24.0,0.,24.0
1979-07-14 08:01:20.190 ,1,0,0.,24.0,0.,24.0,0.,24.0,0.,24.0
1979-07-14 08:01:44.190 ,2,1,0.,24.0,0.,24.0,0.,24.0,0.,24.0
1979-07-14 08:02:08.190 ,2,0,0.,24.0,0.,24.0,0.,24.0,0.,24.0
1979-07-14 08:02:32.190 ,3,1,0.,24.0,0.,24.0,0.,24.0,0.,24.0
1979-07-14 08:02:56.190 ,3,0,0.,24.0,0.,24.0,0.,24.0,0.,24.0
1979-07-14 08:03:20.190 ,4,1,0.,24.0,0.,24.0,0.,24.0,0.,24.0
1979-07-14 08:03:44.190 ,4,0,0.,24.0,0.,24.0,0.,24.0,0.,24.0
1979-07-14 08:04:08.190 ,5,1,0.,24.0,0.,24.0,0.,24.0,0.,24.0
1979-07-14 08:04:32.180 ,5,0,0.,24.0,0.,24.0,0.,24.0,0.,24.0
1979-07-14 08:04:56.180 ,6,1,0.,24.0,0.,24.0,0.,24.0,0.,24.0
1979-07-14 08:05:20.180 ,6,0,0.,24.0,0.,24.0,0.,24.0,0.,24.0
1979-07-14 08:05:44.180 ,7,1,0.,24.0,0.,24.0,0.,24.0,0.,24.0
1979-07-14 08:06:08.180 ,7,0,0.,24.0,0.,24.0,0.,24.0,0.,24.0
1979-07-14 08:06:32.180 ,7,1,0.,24.0,0.,24.0,0.,24.0,0.,24.0
1979-07-14 08:06:56.180 ,7,0,0.,24.0,0.,24.0,0.,24.0,0.,24.0
1979-07-14 08:07:20.180 ,6,1,0.,24.0,0.,24.0,0.,24.0,0.,24.0
1979-07-14 08:07:44.180 ,6,0,0.,24.0,0.,24.0,0.,24.0,0.,24.0
1979-07-14 08:08:08.180 ,5,1,0.,24.0,0.,24.0,0.,24.0,0.,24.0
1979-07-14 08:08:32.180 ,5,0,0.,24.0,0.,24.0,0.,24.0,0.,24.0
1979-07-14 08:08:56.180 ,4,1,0.,24.0,0.,24.0,0.,24.0,0.,24.0
1979-07-14 08:09:20.180 ,4,0,0.,24.0,0.,24.0,0.,24.0,0.,24.0
1979-07-14 08:09:44.180 ,3,1,0.,24.0,0.,24.0,0.,24.0,0.,24.0
1979-07-14 08:10:08.180 ,3,0,0.,24.0,0.,24.0,0.,24.0,0.,24.0
1979-07-14 08:10:32.180 ,2,1,0.,24.0,0.,24.0,0.,24.0,0.,24.0
1979-07-14 08:10:56.180 ,2,0,0.,24.0,0.,24.0,0.,24.0,0.,24.0
1979-07-14 08:11:20.180 ,1,1,0.,24.0,0.,24.0,0.,24.0,0.,24.0
1979-07-14 08:11:44.180 ,1,0,0.,24.0,0.,24.0,0.,24.0,0.,24.0
1979-07-14 08:12:08.180 ,0,1,0.,24.0,0.,24.0,0.,24.0,0.,24.0
1979-07-14 08:12:32.180 ,0,0,0.,24.0,0.,24.0,0.,24.0,0.,24.0
1979-07-14 08:12:56.180 ,0,0,0.,24.0,0.,24.0,0.,24.0,0.,24.0
1979-07-14 08:13:20.180 ,0,0,0.,24.0,0.,24.0,0.,24.0,0.,24.0
1979-07-14 08:13:44.180 ,1,1,0.,24.0,0.,24.0,0.,24.0,0.,24.0
1979-07-14 08:14:08.180 ,1,0,0.,24.0,0.,24.0,0.,24.0,0.,24.0
1979-07-14 08:14:32.180 ,2,1,0.,24.0,0.,24.0,0.,24.0,0.,24.0
1979-07-14 08:14:56.180 ,2,0,0.,24.0,0.,24.0,0.,24.0,0.,24.0
1979-07-14 08:15:20.180 ,3,1,0.,24.0,0.,24.0,0.,24.0,0.,24.0
1979-07-14 08:15:44.180 ,3,0,0.,24.0,0.,24.0,0.,24.0,0.,24.0
1979-07-14 08:16:08.180 ,4,1,0.,24.0,0.,24.0,0.,24.0,0.,24.0
1979-07-14 08:16:32.180 ,4,0,0.,24.0,0.,24.0,0.,24.0,0.,24.0
1979-07-14 08:16:56.180 ,5,1,0.,24.0,0.,24.0,0.,24.0,0.,24.0
1979-07-14 08:17:20.190 ,5,0,0.,24.0,0.,24.0,0.,24.0,0.,24.0
1979-07-14 08:17:44.190 ,6,1,0.,24.0,0.,24.0,0.,24.0,0.,24.0
1979-07-14 08:18:08.190 ,6,0,0.,24.0,0.,24.0,0.,24.0,0.,24.0
1979-07-14 08:18:32.190 ,7,0,0.,24.0,0.,24.0,0.,24.0,0.,24.0
1979-07-14 08:18:56.190 ,7,0,0.,24.0,0.,24.0,0.,24.0,0.,24.0
1979-07-14 08:19:20.190 ,5,1,0.,24.0,0.,24.0,0.,24.0,0.,24.0
1979-07-14 08:19:44.190 ,1,1,0.,24.0,0.,24.0,0.,24.0,0.,24.0
1979-07-14 08:20:08.190 ,2,1,0.,24.0,0.,24.0,0.,24.0,0.,24.0
1979-07-14 08:20:32.190 ,6,1,0.,24.0,0.,24.0,0.,24.0,0.,24.0
1979-07-14 08:20:56.190 ,5,1,0.,24.0,0.,24.0,0.,24.0,0.,24.0
1979-07-14 08:21:20.190 ,1,1,0.,24.0,0.,24.0,0.,24.0,0.,24.0
1979-07-14 08:21:44.190 ,2,1,0.,24.0,0.,24.0,0.,24.0,0.,24.0
1979-07-14 08:22:08.190 ,6,1,0.,24.0,0.,24.0,0.,24.0,0.,24.0
1979-07-14 08:22:32.190 ,5,1,0.,24.0,0.,24.0,0.,24.0,0.,24.0
1979-07-14 08:22:56.190 ,1,1,0.,24.0,0.,24.0,0.,24.0,0.,24.0
1979-07-14 08:23:20.190 ,2,1,0.,24.0,0.,24.0,0.,24.0,0.,24.0
1979-07-14 08:23:44.190 ,6,1,0.,24.0,0.,24.0,0.,24.0,0.,24.0
1979-07-14 08:24:08.190 ,5,1,0.,24.0,0.,24.0,0.,24.0,0.,24.0
1979-07-14 08:24:32.190 ,1,1,0.,24.0,0.,24.0,0.,24.0,0.,24.0
1979-07-14 08:24:56.190 ,2,1,0.,24.0,0.,24.0,0.,24.0,0.,24.0
1979-07-14 08:25:20.190 ,6,1,0.,24.0,0.,24.0,0.,24.0,0.,24.0
1979-07-14 08:25:44.180 ,5,1,0.,24.0,0.,24.0,0.,24.0,0.,24.0
1979-07-14 08:26:08.180 ,1,1,0.,24.0,0.,24.0,0.,24.0,0.,24.0
1979-07-14 08:26:32.180 ,2,1,0.,24.0,0.,24.0,0.,24.0,0.,24.0
1979-07-14 08:26:56.180 ,6,1,0.,24.0,0.,24.0,0.,24.0,0.,24.0
1979-07-14 08:27:20.180 ,5,1,0.,24.0,0.,24.0,0.,24.0,0.,24.0
1979-07-14 08:27:44.180 ,1,1,0.,24.0,0.,24.0,0.,24.0,0.,24.0
1979-07-14 08:28:08.180 ,2,1,0.,24.0,0.,24.0,0.,24.0,0.,24.0
1979-07-14 08:28:32.180 ,6,1,0.,24.0,0.,24.0,0.,24.0,0.,24.0
1979-07-14 08:28:56.180 ,5,1,0.,24.0,0.,24.0,0.,24.0,0.,24.0
1979-07-14 08:29:20.180 ,1,1,0.,24.0,0.,24.0,0.,24.0,0.,24.0
1979-07-14 08:29:44.180 ,0,0,0.,24.0,0.,24.0,0.,24.0,0.,24.0
1979-07-14 08:30:08.180 ,0,0,0.,24.0,0.,24.0,0.,24.0,0.,24.0
1979-07-14 08:30:32.180 ,5,1,0.,24.0,0.,24.0,0.,24.0,0.,24.0
1979-07-14 08:30:56.180 ,5,0,0.,24.0,0.,24.0,0.,24.0,0.,24.0
1979-07-14 08:31:20.180 ,4,1,0.,24.0,0.,24.0,0.,24.0,0.,24.0
1979-07-14 08:31:44.180 ,4,0,0.,24.0,0.,24.0,0.,24.0,0.,24.0
1979-07-14 08:32:08.180 ,3,1,0.,24.0,0.,24.0,0.,24.0,0.,24.0
1979-07-14 08:32:32.180 ,3,0,0.,24.0,0.,24.0,0.,24.0,0.,24.0
1979-07-14 08:32:56.180 ,2,1,0.,24.0,0.,24.0,0.,24.0,0.,24.0
1979-07-14 08:33:20.180 ,2,0,0.,24.0,0.,24.0,0.,24.0,0.,24.0
1979-07-14 08:33:44.180 ,1,1,0.,24.0,0.,24.0,0.,24.0,0.,24.0
1979-07-14 08:34:08.180 ,1,0,0.,24.0,0.,24.0,0.,24.0,0.,24.0
1979-07-14 08:34:32.180 ,0,1,0.,24.0,0.,24.0,0.,24.0,0.,24.0